マクノート彗星

P/2006 G1 ( McNaught )

English version
Home page
Updated on September 23, 2007

---------------------------------------------------------------------

・ プロフィール

発見日 2006年4月5日
発見光度 18.0等
発見者 R. H. McNaught (Siding Spring)

・ 軌道要素

The following orbital elements are taken from MPC 57417:

Epoch 2006 Aug. 13.0 TT = JDT 2453960.5
T 2006 Aug. 18.4821 TT                                  MPC
q   2.632159             (2000.0)            P               Q
n   0.0932054      Peri.  313.9343      -0.2565924      +0.9257731
a   4.817726       Node   299.2519      -0.7703045      -0.3694049
e   0.453651       Incl.   18.5578      -0.5837733      +0.0805243
P  10.6
From 123 observations 2006 Apr. 5-July 28, mean residual 0".6.

・ 光度変化

        m1 = 12.0 + 5 logΔ + 10.0 log r

---------------------------------------------------------------------

軌道要素はMPCのEphemerides and Orbital Elementsに掲載されたものです。
光度グラフはComet for Windowsで作成したものです。

---------------------------------------------------------------------

Copyright(C) Seiichi Yoshida (comet@aerith.net). All rights reserved.